User: anonymous   Login
Location: Fort Wayne
(41.1310°N, 85.1290°W)
Time: 17:45:00
(UTC-05:00)
Language:

Cosmos 2056 Rocket - Orbit

View from above orbital plane
View from above orbital plane
View from above satellite
View from above satellite

Ground track
Ground track

The orbit data is extracted from the following two-line orbital elements,

1 20433U 90004B   17055.89967580 +.00000049 +00000-0 +25538-4 0  9995
2 20433 074.0358 202.2933 0041053 357.4318 116.6113 14.35975945418808
Epoch (UTC): 24 February 2017 21:35:31
Eccentricity: 0.0041053
inclination: 74.0358°
perigee height: 742 km
apogee height: 801 km
right ascension of ascending node: 202.2933°
argument of perigee: 357.4318°
revolutions per day: 14.35975945
mean anomaly at epoch: 116.6113°
orbit number at epoch: 41880

The dashed part of the orbit path shows where the satellite is in the earth's shadow,  

DLR